Wind_Speed
120 121 121 121 121 121 121 122 123 124 125 126 127 128 128 128 126 125 122 121 119 118 117 116 115 113 112 110 108 107 106 105 103 103 103 102 102 101 99 98 97 95 93 92 92 91 90 90 89 88 87 88 88 89 91 94 97 100 101 103 104 105 104 104 103 102 100 99 98 97 96 95 93 91 89 87 85 83 81 79 77 76 75 76 77 77
117 118 118 119 120 121 121 122 122 123 124 125 127 128 129 129 129 128 126 124 122 121 120 119 117 116 114 112 111 110 108 107 105 104 104 103 103 102 101 100 99 97 96 94 93 92 91 90 89 88 87 87 87 88 89 91 95 98 101 103 104 105 106 106 105 104 102 100 99 97 97 96 94 92 91 89 87 84 83 81 80 78 77 77 78 79
110 111 113 115 116 118 119 121 122 122 123 125 126 128 129 130 130 130 128 127 125 124 122 121 120 118 117 115 114 112 111 109 108 106 105 105 104 104 103 102 101 100 98 96 95 94 93 91 90 89 88 87 87 87 87 89 92 96 100 103 104 106 107 107 107 106 105 102 100 98 97 96 95 94 93 91 89 86 85 84 83 81 80 79 80 80
102 103 105 108 110 112 114 117 119 120 122 124 125 127 128 129 130 131 131 129 128 126 124 123 122 120 119 117 116 115 113 111 110 109 107 106 106 105 104 104 103 102 100 99 97 95 94 92 91 90 89 88 87 86 86 87 90 94 98 101 104 105 107 108 108 108 107 105 102 100 98 97 96 96 95 94 92 89 87 86 85 84 83 82 82 82
95 96 98 100 102 104 107 110 113 116 118 121 123 125 127 128 130 131 132 131 130 128 127 125 124 122 121 120 118 116 115 114 112 111 109 108 107 106 106 105 105 104 102 100 99 97 95 94 92 91 90 89 87 86 85 86 88 91 94 98 102 104 106 108 109 109 109 108 105 102 99 98 98 98 98 97 95 92 90 88 87 86 85 85 85 85
89 90 91 92 94 96 99 102 104 108 111 115 119 122 124 126 128 130 131 131 131 130 129 127 126 124 123 121 120 118 117 116 115 113 111 110 109 108 107 107 106 105 104 102 100 98 96 95 94 93 92 90 88 86 85 85 86 88 91 95 99 102 105 107 109 110 110 109 108 105 102 100 99 100 100 99 97 94 92 90 89 88 88 88 87 87
84 84 85 86 87 89 91 93 96 99 102 107 111 116 120 123 126 128 129 130 131 131 131 130 128 126 124 123 121 120 119 118 116 115 114 112 111 109 108 108 107 107 106 104 102 100 98 97 95 94 93 91 89 87 85 85 85 86 89 92 95 99 102 105 108 109 110 110 109 107 104 102 101 101 102 100 98 96 94 92 91 90 90 90 89 89
80 80 80 81 82 84 85 86 88 90 94 98 102 107 112 116 120 124 127 129 130 131 131 131 130 128 126 124 122 121 120 119 118 117 116 114 112 111 110 109 109 108 107 106 104 102 100 98 97 95 94 92 90 88 86 85 85 85 87 89 92 95 99 102 105 108 109 110 110 109 107 104 103 103 103 100 98 97 96 95 93 92 92 92 92 90
77 77 77 78 78 79 79 80 81 83 85 89 93 98 102 107 112 117 122 125 128 130 131 131 130 129 127 125 123 122 121 120 120 119 117 116 114 113 111 110 110 109 108 107 106 104 102 100 98 96 94 93 92 90 88 86 85 85 85 87 89 92 95 98 102 105 108 109 110 110 109 107 106 105 103 101 99 99 99 97 96 94 94 94 93 91
74 74 74 75 75 75 75 75 76 77 79 81 85 89 93 98 103 108 113 118 122 126 128 130 130 130 129 127 125 123 121 121 121 120 119 117 116 114 113 112 111 110 109 108 107 105 104 102 99 97 95 94 93 91 89 87 85 85 85 86 87 89 91 94 98 101 105 107 109 110 110 109 108 106 104 102 101 101 101 100 98 96 96 95 94 92
70 71 71 72 72 72 71 71 72 72 73 75 78 81 85 89 93 98 103 109 115 120 123 126 128 130 129 128 126 124 122 122 121 121 120 119 117 116 115 113 112 111 110 109 108 107 105 103 101 99 97 95 94 93 91 89 87 85 85 85 86 87 88 90 93 97 100 104 106 108 109 109 109 107 105 103 103 103 103 101 99 98 97 96 95 93
67 67 68 69 69 69 68 68 68 69 69 70 72 74 77 81 84 89 94 100 106 111 116 120 124 127 128 128 127 125 124 122 121 121 120 120 119 117 116 115 113 112 111 110 109 107 106 104 103 101 99 97 95 94 92 90 88 86 85 85 85 85 86 87 90 92 96 99 102 105 107 108 108 107 106 104 104 104 103 102 101 99 98 97 96 93
63 64 65 65 66 66 65 65 65 65 65 66 67 69 71 74 77 80 85 91 97 102 107 112 117 122 125 126 126 126 124 123 122 122 121 120 119 118 117 115 114 113 112 110 109 108 107 106 104 102 100 98 96 95 93 91 89 88 86 85 85 84 85 85 87 89 91 94 97 101 104 106 107 106 106 105 104 104 104 103 102 100 98 97 96 93
60 60 61 62 63 63 62 62 62 62 62 63 63 64 66 68 70 72 77 82 88 93 98 103 109 114 119 122 123 124 124 123 123 122 122 121 120 119 117 116 115 114 113 111 110 109 108 106 105 103 101 99 97 95 94 92 90 89 87 86 85 84 84 84 84 86 88 90 93 96 99 102 104 105 105 105 104 104 104 103 102 100 99 98 96 94
56 57 58 59 59 59 59 59 59 59 60 59 59 60 61 62 64 67 70 75 80 84 89 94 100 107 111 115 118 121 121 122 122 122 122 121 121 119 118 117 116 115 114 112 110 109 108 107 105 104 102 100 98 96 95 93 91 90 88 86 85 84 83 83 83 84 85 87 89 92 95 98 101 103 104 104 104 104 104 103 102 101 100 98 97 94
52 53 54 55 56 56 56 55 55 56 56 56 56 56 56 58 60 63 66 69 73 77 80 86 92 98 103 109 112 115 116 118 120 121 122 121 120 120 118 117 117 116 115 113 111 110 109 107 106 104 102 101 99 97 95 93 92 90 89 87 85 84 83 82 82 83 84 85 87 89 91 94 97 100 102 103 104 104 104 103 102 102 100 99 97 95
49 50 51 52 52 52 52 52 52 53 53 52 52 53 54 55 57 59 61 64 67 70 73 78 84 89 95 101 105 108 111 113 115 118 120 120 120 119 119 118 117 116 115 113 112 110 109 107 105 104 103 101 100 98 96 94 92 91 89 88 86 84 83 82 81 81 82 83 85 86 88 91 93 96 99 101 103 103 103 103 103 102 101 100 98 95
46 47 47 48 48 48 48 48 49 49 49 49 49 50 51 52 53 54 56 59 61 64 68 73 78 82 88 92 97 102 106 107 110 114 116 117 118 119 119 118 118 117 116 114 112 111 109 107 105 104 103 101 100 98 96 94 93 91 90 88 87 85 83 82 81 81 81 82 83 84 86 88 90 92 95 97 100 102 103 103 103 103 102 101 98 96
43 43 44 44 45 45 44 44 45 45 45 46 46 47 47 49 50 51 53 55 57 60 63 67 71 75 80 84 90 95 99 101 104 108 110 113 116 118 118 118 118 117 116 114 113 111 109 107 105 104 103 101 100 98 97 95 93 92 90 89 87 85 84 82 81 80 80 80 81 83 84 85 87 88 91 93 97 99 102 103 104 104 104 102 100 97
39 40 40 41 41 41 41 41 41 41 41 42 42 43 44 46 47 48 50 52 54 56 59 61 64 68 73 77 82 86 89 92 97 101 105 109 112 115 116 116 117 117 116 114 113 111 109 107 105 104 102 101 100 98 97 95 93 92 90 89 87 86 84 82 81 80 79 79 80 81 82 83 84 85 87 90 93 96 99 102 103 104 104 103 101 98
35 36 36 37 38 38 38 37 36 36 36 36 37 38 40 41 43 44 46 48 49 51 54 56 59 62 66 70 73 77 81 84 89 94 100 104 108 111 113 115 116 116 115 114 113 111 108 106 105 103 102 100 99 98 96 95 93 92 90 89 88 86 85 83 81 80 79 78 79 79 80 81 82 83 84 86 89 93 96 100 102 103 104 103 101 99
33 32 32 33 34 35 34 33 32 32 32 32 32 33 35 36 38 40 42 43 44 46 49 52 55 58 60 63 67 71 74 78 83 89 94 97 101 106 110 112 113 114 114 113 112 110 108 106 104 103 101 100 98 97 96 94 93 92 90 89 88 86 85 84 82 80 79 78 77 78 78 79 80 80 81 83 85 89 93 96 99 100 101 101 101 99
31 30 29 29 31 31 31 30 29 29 29 29 30 32 34 34 36 37 39 40 41 43 46 49 51 52 53 56 60 65 68 72 78 84 87 90 96 101 106 108 110 111 111 111 111 109 107 105 104 102 100 99 97 96 95 94 92 91 90 89 87 86 85 84 82 81 79 78 77 76 76 77 78 79 79 80 82 85 89 92 94 96 96 98 99 98
29 29 28 27 28 29 29 29 29 28 28 28 30 32 34 35 37 38 38 39 40 42 44 46 47 48 49 52 56 60 63 67 72 77 81 86 92 97 101 103 104 106 108 109 109 108 106 104 103 101 99 97 96 95 94 93 91 90 89 88 87 86 85 84 82 81 79 77 76 75 75 75 76 77 77 78 80 82 85 88 90 91 92 93 95 97
29 28 28 27 27 27 28 29 29 28 28 29 30 32 34 36 37 38 38 39 39 41 42 44 46 47 49 51 54 58 61 65 68 72 76 82 87 91 94 96 99 102 105 106 106 105 104 103 102 100 98 96 95 94 92 91 90 89 88 87 86 85 84 83 82 80 79 77 76 74 73 73 74 75 76 76 77 79 81 84 85 86 87 89 92 94
30 29 28 27 27 27 28 28 28 28 28 29 30 31 33 35 36 37 37 38 38 39 40 43 46 48 50 51 53 56 59 62 65 68 72 77 81 84 87 91 94 98 100 102 102 102 102 101 100 98 96 95 94 92 91 90 89 88 87 86 85 85 84 82 81 80 78 77 75 74 73 72 72 72 73 74 75 76 78 80 81 82 83 86 89 91
31 31 29 28 27 27 27 27 27 27 27 28 29 30 31 33 35 36 37 37 37 38 39 42 45 47 48 48 50 54 57 59 61 65 69 72 75 78 81 86 89 92 94 96 98 99 99 98 97 96 95 93 92 91 89 88 87 86 85 85 84 83 82 81 80 79 77 76 74 73 72 71 70 71 71 72 73 74 75 76 77 78 79 82 84 87
33 31 30 29 27 26 25 25 25 26 26 27 28 29 30 32 34 35 35 35 35 36 38 41 43 44 45 46 48 51 53 55 58 61 65 68 70 73 77 81 84 86 88 91 93 95 96 95 95 94 93 92 90 89 87 86 85 84 84 83 83 82 81 80 79 78 76 75 74 72 71 70 69 69 70 70 71 72 72 73 74 74 76 78 80 82
32 31 30 28 26 25 24 24 24 24 25 26 27 28 30 32 33 33 33 32 33 35 37 39 40 41 42 44 46 48 50 52 55 58 61 63 66 70 74 75 78 80 83 86 88 90 90 91 91 91 90 90 88 87 86 85 84 83 82 82 81 80 80 79 78 77 75 74 73 71 70 69 68 68 68 69 70 70 70 71 71 72 72 74 75 77
30 29 28 26 25 24 23 23 23 23 24 25 26 28 29 31 31 31 30 31 33 35 36 36 36 37 38 40 42 44 46 49 52 55 57 59 62 66 68 70 72 76 78 80 81 83 85 87 88 88 87 87 86 85 84 83 82 81 80 80 79 79 78 77 76 75 74 73 72 71 70 69 68 67 67 67 68 68 69 69 69 69 70 70 71 72
28 27 26 24 23 23 22 22 22 22 22 24 25 27 28 29 29 29 29 30 32 33 33 33 33 34 36 38 40 42 44 47 49 51 53 56 59 62 63 65 68 72 74 75 77 78 81 83 84 84 84 84 83 82 82 81 80 80 79 78 78 77 76 76 75 74 73 72 71 70 69 68 67 67 66 66 67 67 67 67 67 67 67 67 67 67
27 25 24 22 21 21 21 20 20 20 21 22 24 25 27 27 28 28 28 30 31 31 31 30 31 32 34 36 39 41 42 44 46 48 50 53 56 58 58 61 64 67 69 72 74 76 77 78 80 80 81 81 80 80 80 79 79 78 77 76 76 75 75 74 74 73 72 72 71 69 68 68 67 66 66 65 65 65 66 66 66 66 66 65 64 64
25 23 22 21 20 19 19 19 18 18 19 20 22 24 25 26 27 27 27 28 29 29 29 29 30 31 33 35 37 38 40 42 43 45 48 50 52 53 54 57 60 62 64 67 70 73 74 75 76 77 77 78 78 78 78 77 77 76 76 75 74 74 74 73 72 72 72 71 70 69 68 67 66 65 65 64 64 64 64 64 65 65 65 65 64 63
23 21 20 19 19 18 18 17 17 17 17 19 21 23 25 25 26 26 26 27 27 28 28 29 30 31 33 34 35 37 38 40 42 44 45 47 49 50 51 54 56 58 59 62 65 67 69 70 71 72 73 75 75 75 75 75 75 75 74 73 73 72 72 72 71 71 71 70 69 68 67 66 66 65 64 63 63 62 62 62 63 64 65 65 64 63
20 19 18 18 17 17 17 16 16 17 17 19 21 22 24 24 24 24 25 26 26 27 28 29 30 32 33 34 35 37 38 40 41 42 43 45 46 47 48 51 53 54 55 58 60 62 63 66 67 68 69 70 71 72 73 73 73 72 72 71 71 71 70 70 70 70 70 69 68 67 67 66 65 64 63 62 61 61 60 60 61 62 63 64 63 62
17 17 16 16 15 15 15 15 16 17 18 19 20 22 23 23 23 23 24 25 26 27 28 30 31 32 33 35 36 38 39 40 40 41 42 44 45 46 46 48 50 51 52 54 55 57 59 61 63 65 66 66 67 68 70 70 70 70 69 69 69 69 69 69 68 68 68 68 67 67 66 65 64 63 62 61 60 59 59 58 59 60 61 61 61 61
14 14 13 13 13 13 13 14 15 16 17 18 19 20 21 21 21 22 23 25 26 28 29 31 32 33 34 36 37 39 40 40 40 41 42 43 44 45 45 46 47 48 49 50 51 52 54 57 58 60 62 63 64 65 66 66 67 67 67 67 67 67 67 67 67 67 67 66 66 66 65 64 63 61 60 59 59 58 57 57 57 58 59 59 59 59
11 10 9 10 10 11 11 12 13 14 15 15 16 17 18 19 19 20 22 24 26 28 30 32 33 34 35 37 38 39 40 40 40 41 42 42 43 44 44 44 44 45 46 47 47 49 52 53 54 55 58 60 61 62 62 62 63 64 65 66 65 65 65 65 65 65 65 65 65 64 64 62 61 60 58 58 57 56 55 55 56 56 57 57 58 58
6 5 6 6 7 8 9 10 11 11 12 12 13 14 15 16 18 20 22 25 28 30 31 33 34 35 36 38 40 40 41 41 41 42 42 42 43 43 43 42 42 42 44 45 46 47 49 50 51 52 54 56 57 58 59 60 60 61 62 62 62 62 63 63 63 63 63 63 63 62 62 61 59 58 57 56 55 54 54 55 55 55 56 56 56 56
2 4 5 6 6 7 8 8 8 8 9 10 11 13 14 16 19 21 24 27 29 31 32 33 34 36 38 39 41 41 42 42 42 42 42 42 42 42 41 41 40 41 42 44 45 45 45 46 47 49 50 52 53 54 55 57 58 59 59 58 58 59 61 61 61 61 61 61 61 60 59 59 57 56 55 54 54 53 53 54 54 55 55 55 55 55
2 3 4 5 6 6 7 7 7 8 9 11 13 15 17 19 22 24 27 29 30 32 33 34 35 37 39 41 42 42 42 43 43 43 43 42 42 41 40 39 39 39 40 41 42 42 42 43 44 45 46 48 49 51 52 53 54 55 55 55 56 58 58 58 58 59 59 59 58 58 57 56 55 54 54 53 53 53 53 53 54 54 55 55 56 56
4 4 4 5 5 6 8 9 10 11 13 15 17 19 21 22 24 26 28 30 31 32 33 34 36 38 40 41 42 43 43 43 43 43 42 42 41 40 39 38 38 38 40 40 40 40 40 41 42 42 43 44 45 46 47 49 50 51 52 53 54 55 54 55 56 56 55 55 56 55 55 54 53 52 52 51 51 51 52 52 53 54 55 55 55 55
4 4 4 5 6 8 10 11 12 14 15 17 19 20 22 24 26 27 29 30 31 32 33 35 37 39 41 43 43 44 44 43 43 42 42 41 40 39 38 38 38 38 39 40 39 38 39 40 41 41 41 42 42 42 43 44 45 47 48 50 50 50 49 51 53 53 52 52 52 52 52 51 50 50 49 49 49 49 50 51 53 54 54 55 55 55
2 2 3 5 6 8 9 11 12 14 15 17 18 20 22 24 26 27 29 30 30 31 33 35 38 41 43 44 44 45 44 43 43 42 41 41 40 39 38 38 38 39 39 38 38 37 37 38 39 39 39 39 39 39 40 40 41 42 44 45 46 46 47 48 49 48 48 49 49 49 48 48 47 47 46 46 46 47 48 50 52 54 55 56 56 56
2 1 2 4 5 6 8 9 11 12 14 15 17 19 21 23 25 27 28 29 30 31 33 36 39 42 44 45 46 46 45 45 44 43 42 41 39 38 38 38 39 39 39 38 37 37 36 36 36 36 36 36 36 36 37 37 38 39 40 41 42 43 45 45 45 44 45 45 45 45 45 44 44 43 43 43 44 45 46 48 50 52 54 56 56 56
7 6 6 6 7 7 8 9 10 11 13 15 17 19 21 23 24 26 27 28 30 32 35 38 41 43 45 47 48 48 48 47 46 44 42 40 39 39 39 40 40 40 39 38 37 36 35 35 35 34 33 33 33 34 35 35 35 36 37 38 38 39 40 41 41 41 42 42 41 41 41 40 39 39 39 40 42 43 44 46 48 50 52 53 54 55
13 12 12 11 11 11 10 10 10 11 12 14 16 18 20 22 23 25 27 30 32 35 38 41 44 46 48 49 50 50 48 46 42 39 37 36 37 39 41 43 42 41 39 38 36 35 34 34 33 33 32 32 32 32 33 34 34 34 35 35 36 36 37 37 38 39 39 38 38 38 37 37 36 36 37 38 39 40 42 44 46 47 49 50 52 52
15 15 15 14 14 13 12 11 11 11 11 12 14 15 17 20 22 26 29 32 36 39 42 44 46 48 49 49 48 45 41 36 32 30 30 32 35 38 41 43 42 41 39 37 35 34 33 33 33 33 33 33 33 33 33 33 33 34 34 34 34 34 34 35 35 36 36 36 36 35 35 34 34 34 35 36 37 38 40 42 44 45 47 48 50 50
14 14 13 13 12 12 11 11 10 11 11 11 13 14 17 20 24 27 31 35 39 42 44 46 46 45 44 41 38 34 30 26 25 27 30 33 35 37 38 39 38 38 37 35 34 34 33 33 33 33 34 34 34 34 33 33 33 33 33 32 32 32 32 32 33 33 34 34 34 34 34 34 35 35 36 36 36 37 39 40 42 43 45 47 48 48
12 12 12 12 11 10 10 10 11 11 12 14 16 18 21 24 28 31 34 36 38 39 40 39 37 34 32 29 27 25 24 24 27 31 34 35 35 35 35 35 35 35 35 34 34 34 34 35 35 35 35 35 35 34 34 33 33 32 32 32 31 31 31 32 32 32 33 33 34 34 35 35 36 36 37 38 39 39 40 41 41 43 44 45 46 46
12 12 12 12 11 11 11 12 13 14 16 18 20 22 25 28 30 32 33 33 33 31 29 26 24 22 20 21 23 24 26 28 31 34 35 33 32 32 33 33 34 35 35 36 36 36 36 36 36 36 36 36 36 35 35 34 33 32 32 33 33 33 33 33 34 33 33 34 34 35 35 36 37 38 39 40 41 42 43 43 43 44 44 45 45 46
Wind_Direction
260 258 256 254 253 252 250 248 247 246 245 244 243 242 242 241 240 239 239 238 238 238 237 237 237 237 237 238 238 238 238 238 238 239 239 239 239 239 238 237 237 236 236 236 236 237 237 238 238 239 239 239 238 238 237 236 235 234 233 232 232 232 232 233 233 234 235 236 238 239 239 240 240 241 241 241 242 242 243 243 244 245 247 248 249 250
260 259 257 256 254 253 251 249 248 247 246 245 243 242 242 241 240 240 239 238 238 238 237 237 236 236 236 237 237 237 237 237 237 237 238 238 239 238 238 238 237 236 236 236 236 236 236 237 237 238 238 238 238 238 237 236 236 235 234 233 232 232 232 232 233 234 234 235 237 238 239 239 240 240 241 241 241 241 242 243 244 244 245 247 248 250
261 260 258 257 255 254 252 251 249 248 247 246 244 243 242 241 241 240 239 238 238 237 237 236 236 236 236 236 236 236 236 236 236 236 237 237 238 238 238 238 237 236 236 235 235 235 236 236 236 237 237 238 238 237 237 236 236 235 234 233 233 232 232 232 232 233 234 235 236 237 238 239 239 240 240 240 240 240 241 242 243 244 244 245 247 248
262 261 259 258 256 255 253 252 250 249 248 246 245 244 243 242 241 240 239 239 238 237 237 236 236 235 235 235 235 235 236 235 235 235 236 236 237 237 237 237 237 236 236 235 235 235 235 235 235 236 237 237 237 237 237 236 236 236 235 234 233 233 233 232 233 233 234 235 236 236 237 238 239 239 240 240 240 239 239 240 242 243 244 244 245 246
262 261 260 259 257 256 254 253 251 250 249 247 246 245 244 242 241 240 239 239 238 238 237 236 235 235 234 234 234 234 235 235 235 235 235 235 235 236 236 237 237 237 236 235 235 234 234 234 235 235 236 236 236 236 236 236 236 236 236 235 234 234 233 233 233 234 234 235 235 236 236 237 238 238 239 240 240 239 239 239 240 242 243 244 244 245
263 262 261 260 259 257 255 254 252 251 250 248 247 246 244 243 242 241 240 240 239 239 237 236 235 235 234 234 233 234 234 234 234 234 234 234 234 235 235 236 236 236 236 235 234 234 234 234 234 234 235 236 236 236 236 236 236 236 236 236 235 235 234 234 234 234 235 235 235 236 236 236 237 238 238 239 240 240 239 239 239 241 242 244 244 245
264 263 262 261 260 258 256 255 253 252 251 249 248 246 245 244 243 242 241 240 240 239 238 237 236 235 234 233 233 233 233 233 234 233 233 233 234 234 234 235 235 236 236 235 235 234 233 233 233 234 234 235 235 235 236 236 236 236 236 236 236 236 235 235 235 235 235 235 236 236 236 236 237 237 238 239 240 240 239 239 239 240 242 243 244 245
265 264 263 262 261 260 258 256 255 253 252 250 249 247 246 245 243 242 241 241 240 240 239 238 237 235 234 233 233 232 232 233 233 233 233 233 233 233 233 234 234 235 235 235 234 234 233 233 233 233 233 234 235 235 235 235 236 236 236 237 237 236 236 236 235 235 236 236 236 236 236 237 237 238 239 239 239 239 239 238 238 239 241 242 243 244
266 265 264 263 262 261 260 258 256 254 253 251 250 249 247 245 244 243 242 241 241 240 240 239 238 236 235 233 232 232 232 232 232 232 232 232 232 232 233 233 233 234 234 234 234 234 233 233 232 232 233 233 234 234 235 235 235 236 236 237 237 237 237 236 236 236 236 236 236 236 236 237 238 238 239 239 239 238 238 238 238 238 239 241 242 243
266 265 265 264 263 262 261 259 257 255 254 252 251 249 248 246 245 243 242 242 241 240 240 240 239 238 236 234 233 232 232 232 232 232 232 232 232 232 232 232 232 233 233 233 234 234 233 233 232 232 232 232 233 234 234 234 235 235 236 236 237 237 237 237 237 237 236 236 236 236 236 237 237 238 238 238 237 237 237 237 237 237 239 240 242 243
266 265 265 265 264 263 262 260 259 257 255 254 252 250 249 247 246 245 243 242 241 240 240 240 239 239 237 235 234 233 232 232 231 231 231 231 231 231 231 232 232 232 232 233 233 233 233 233 232 232 232 232 232 233 233 234 234 235 235 236 237 237 238 238 238 237 237 236 236 236 236 237 237 238 237 237 237 236 236 236 236 237 238 239 241 242
266 265 265 264 264 263 262 261 260 258 257 255 253 252 250 248 247 246 244 242 241 240 240 240 239 239 238 237 235 234 232 232 231 231 231 231 231 231 231 231 231 231 231 232 232 232 233 232 232 232 231 231 232 232 233 233 234 235 235 236 236 237 238 238 238 238 238 237 237 236 236 237 237 237 237 236 236 236 236 236 236 236 237 238 240 241
265 265 265 264 264 263 262 261 260 259 258 256 254 253 250 249 247 246 245 243 241 240 240 239 239 238 238 237 236 235 234 232 231 231 230 230 230 230 230 230 231 231 231 231 231 232 232 232 232 232 231 231 231 231 232 233 233 234 235 235 236 237 237 238 238 239 238 238 238 237 237 237 237 237 236 236 236 236 236 236 236 236 237 238 239 240
266 265 264 264 263 263 262 261 260 259 258 256 254 253 251 249 248 247 245 244 242 241 240 239 238 238 237 237 237 236 235 233 232 231 230 230 230 230 230 230 230 230 230 230 231 231 231 232 232 231 231 231 231 231 232 232 233 234 234 235 236 237 237 238 238 239 239 239 239 238 237 237 237 236 236 236 236 236 236 236 236 236 236 237 238 239
266 265 264 264 263 262 262 261 260 259 258 256 255 254 252 251 249 248 246 244 243 241 240 239 238 237 237 237 237 236 235 234 233 232 231 230 229 229 229 230 230 230 230 230 230 230 231 231 231 231 231 231 231 231 231 232 232 233 234 235 236 236 237 238 238 239 239 240 239 239 238 238 237 237 236 236 236 236 236 236 236 236 236 237 237 238
267 266 265 264 263 262 261 261 260 259 258 257 256 254 253 251 249 247 246 244 243 242 240 239 238 237 236 236 236 236 236 235 234 232 231 230 229 229 229 229 229 229 229 229 229 230 230 230 231 231 231 231 231 231 231 232 232 233 234 234 235 236 237 237 238 239 239 240 240 240 240 239 238 238 237 236 236 236 236 237 237 237 236 236 236 237
269 267 265 264 263 262 261 261 260 259 258 257 256 254 252 250 248 247 245 244 243 242 241 239 238 237 236 235 235 235 235 235 234 233 231 230 229 229 229 229 229 229 229 228 229 229 229 230 230 231 231 231 231 231 231 232 232 232 233 234 235 236 237 237 238 239 239 240 240 240 240 240 240 239 238 237 237 237 237 237 237 237 237 236 236 236
269 267 266 264 263 262 261 260 260 259 258 257 255 254 252 250 248 247 246 245 244 242 241 239 237 236 235 234 234 234 235 235 234 233 232 230 229 229 229 229 229 229 228 228 228 228 229 229 229 230 230 231 231 231 232 232 232 232 233 233 234 235 236 237 238 238 239 240 240 241 241 241 241 240 239 238 237 237 237 237 238 238 237 236 236 236
271 268 266 265 264 262 261 260 259 258 258 256 255 253 251 249 248 246 245 244 243 242 240 239 237 236 235 234 233 233 234 234 233 233 232 231 229 229 228 229 228 228 228 228 228 228 228 228 229 229 230 230 231 231 232 232 232 232 232 233 234 235 236 237 238 238 239 240 240 241 241 242 242 241 241 239 238 238 238 238 238 238 238 237 236 235
275 271 268 266 265 263 261 259 258 257 256 255 253 252 250 249 247 245 244 243 242 241 240 239 237 236 235 234 233 233 233 233 233 232 232 230 229 229 228 228 228 228 228 227 227 227 227 228 228 229 229 230 231 231 231 232 232 232 232 233 233 234 235 237 237 238 239 239 240 241 242 242 242 242 242 241 239 238 238 238 239 239 239 238 236 236
281 275 271 268 265 263 260 258 257 255 254 253 252 251 250 248 246 244 243 242 241 240 240 239 237 236 234 233 232 232 232 232 232 232 231 230 229 228 228 228 228 228 227 227 227 227 227 227 228 228 229 230 230 231 231 232 232 232 233 233 233 234 235 236 237 238 239 239 240 241 242 242 243 243 243 242 240 239 239 239 240 240 240 239 238 237
288 281 275 269 265 262 259 256 253 251 250 250 250 250 249 248 245 243 241 240 239 238 237 236 235 233 232 231 230 230 230 230 230 230 230 229 229 228 228 227 227 227 227 227 227 227 227 227 228 228 228 229 230 230 231 232 232 232 233 233 233 234 235 236 237 238 239 240 240 241 242 242 243 243 243 243 242 241 240 240 241 242 242 241 239 238
293 288 280 272 265 261 257 253 250 247 246 246 247 248 248 247 245 242 240 238 236 235 234 232 230 230 230 229 228 227 227 227 227 228 228 227 227 227 227 227 226 226 227 227 226 227 227 227 227 228 228 229 229 230 231 231 232 232 233 233 233 234 234 235 236 238 239 240 240 241 242 242 243 244 244 244 243 242 241 242 242 243 243 242 241 239
298 293 286 277 268 261 256 251 248 245 243 242 242 243 243 243 242 241 239 236 234 232 231 228 227 227 227 226 225 224 224 224 225 225 226 226 226 226 226 226 226 226 226 226 226 226 226 227 227 228 228 229 229 230 231 231 232 232 233 233 233 234 234 235 236 237 238 240 241 242 242 243 243 244 244 244 244 243 243 243 243 244 244 243 242 241
303 298 291 282 272 264 257 252 249 246 243 240 238 237 237 238 238 237 236 234 232 230 229 225 224 224 224 223 221 220 220 220 221 222 223 224 224 224 224 224 224 225 225 225 225 226 226 227 227 227 228 229 229 230 230 231 232 232 233 233 234 234 234 235 236 237 238 239 241 242 243 243 244 244 245 245 245 244 244 244 244 245 245 244 243 242
305 301 294 286 277 268 260 255 251 247 243 240 236 234 233 233 233 232 231 230 228 227 226 225 224 223 221 219 218 217 218 218 219 219 221 221 222 222 222 223 223 223 224 224 225 225 226 226 227 227 228 228 229 230 230 231 231 232 233 233 233 234 234 235 236 236 238 239 241 242 243 244 244 245 245 246 246 245 245 245 245 245 245 244 243 243
303 300 295 288 279 271 263 257 252 247 242 238 235 232 230 230 229 228 226 225 224 224 223 223 222 221 219 218 217 216 216 216 217 217 218 219 219 219 220 221 221 222 222 223 224 224 225 226 226 227 227 228 229 229 230 231 231 232 232 233 233 234 234 235 235 236 237 239 240 242 243 244 245 245 246 246 246 246 246 246 245 245 245 244 243 243
299 297 293 287 280 272 265 258 252 246 240 236 232 229 228 227 226 225 223 222 222 222 222 221 220 219 218 217 216 215 214 213 214 215 216 216 216 216 218 219 219 220 221 222 223 223 224 225 225 226 227 228 228 229 230 231 231 232 232 233 233 234 234 235 235 236 237 238 240 241 243 244 245 246 246 247 247 247 247 246 245 245 244 243 243 243
294 292 289 284 278 271 264 258 251 244 238 233 229 227 226 225 225 223 221 220 220 220 221 220 219 217 216 214 212 211 210 210 211 213 214 213 213 214 216 216 217 218 219 220 221 222 223 224 225 226 226 227 228 229 230 230 231 231 232 232 233 233 234 234 235 236 236 238 239 241 242 244 245 246 247 247 248 248 248 247 246 245 243 243 243 244
290 288 285 280 275 269 262 256 248 241 235 230 227 225 224 224 223 222 219 218 218 218 218 217 215 213 212 210 209 207 206 207 209 210 211 211 211 212 213 213 214 216 217 218 219 220 221 223 224 225 226 227 228 228 229 230 231 231 232 232 233 233 234 234 235 235 236 237 238 240 241 243 245 246 247 248 248 248 248 247 246 245 243 243 243 244
288 284 280 276 270 264 258 252 245 238 232 228 225 223 222 222 222 220 217 215 215 215 214 212 209 207 206 205 204 204 203 204 206 207 208 208 208 209 210 210 211 213 215 215 216 218 219 221 222 223 224 226 227 228 229 230 230 231 232 232 233 233 233 234 234 235 236 236 238 239 241 243 244 246 247 248 248 248 248 247 246 244 243 243 243 244
286 282 276 271 265 258 252 246 240 234 230 227 225 223 222 222 221 218 215 213 212 211 208 205 203 201 200 200 200 200 199 200 201 203 204 205 205 206 207 208 209 211 212 213 215 216 217 219 221 222 223 225 226 227 228 229 230 231 231 232 232 233 233 234 234 235 235 236 237 239 240 242 244 246 247 248 248 249 248 247 245 244 242 242 243 244
284 278 272 266 259 253 247 241 236 232 229 228 226 225 224 222 219 216 212 209 207 205 202 199 196 195 195 195 195 195 194 196 198 199 201 201 202 203 204 205 207 208 210 211 213 214 216 217 219 221 222 223 225 226 228 229 230 230 231 232 232 233 233 234 234 235 235 236 237 238 240 242 243 245 247 248 248 248 248 247 245 243 242 242 243 244
281 275 269 262 256 249 243 237 233 230 229 229 228 226 223 220 216 212 207 203 201 199 196 193 191 189 189 189 189 189 189 191 194 196 196 197 198 199 201 202 204 206 207 209 211 212 214 216 218 219 221 222 224 225 227 228 229 230 231 232 232 233 233 234 234 235 235 236 237 238 240 241 243 245 246 247 248 248 247 246 244 243 242 242 243 244
277 271 265 258 252 246 241 236 232 229 227 226 225 223 220 216 211 206 201 198 196 193 190 188 186 185 184 183 183 183 184 187 189 191 191 192 194 195 197 199 202 203 205 207 209 210 212 214 216 218 219 221 223 225 226 228 229 230 231 231 232 233 233 234 234 235 235 236 237 238 239 241 243 244 246 247 247 247 247 245 244 242 242 242 243 243
274 268 262 256 250 245 240 236 231 227 223 220 218 216 214 210 205 200 196 194 191 189 186 184 182 180 180 179 178 179 181 183 184 185 186 188 190 191 193 196 198 200 202 204 206 208 210 212 214 216 218 220 222 224 225 227 228 229 230 231 232 233 233 234 234 235 236 236 237 238 240 241 243 244 245 246 247 246 246 244 243 242 241 241 242 243
271 266 260 255 250 245 241 235 229 223 218 214 212 210 207 204 200 196 194 191 189 186 183 180 178 177 176 175 176 177 178 180 180 180 182 184 186 187 190 192 195 197 199 201 204 206 208 210 212 214 216 218 220 222 224 226 227 229 230 231 232 232 233 234 234 235 236 236 237 238 240 241 243 244 245 246 246 246 245 244 242 241 240 241 242 243
272 270 267 261 254 247 240 232 224 218 212 210 208 206 203 200 197 195 193 191 188 185 181 178 176 174 174 173 174 175 176 176 176 176 178 180 182 184 186 188 191 193 196 198 200 203 206 208 211 213 215 217 219 221 223 224 226 228 229 230 231 232 233 234 234 235 236 237 237 239 240 241 243 244 245 245 245 245 244 243 241 240 239 239 240 241
286 301 302 287 268 251 237 226 217 210 206 205 203 201 200 198 197 196 195 192 187 183 179 175 174 173 173 172 173 173 173 173 172 173 174 176 178 181 182 184 186 189 192 195 198 201 205 207 209 211 213 216 218 220 222 223 225 227 228 229 231 232 233 234 235 235 236 237 238 239 240 241 242 243 244 244 244 243 242 241 240 238 238 237 238 239
315 343 326 298 271 248 229 213 202 198 198 199 200 199 199 199 199 197 193 189 183 179 175 172 172 171 171 171 171 170 170 169 169 170 171 173 175 177 178 179 181 185 189 194 198 200 203 205 208 210 212 214 216 218 220 222 224 226 227 229 230 231 232 233 234 235 236 237 238 239 240 241 242 243 243 243 242 241 240 239 238 236 236 235 236 237
281 309 290 270 250 230 210 192 185 188 194 198 199 199 199 198 196 193 188 183 178 174 171 170 170 170 170 169 168 168 167 167 167 167 168 169 171 172 173 176 179 183 187 191 195 198 201 204 206 209 211 213 215 217 219 221 223 225 226 228 229 231 232 233 234 235 236 237 238 239 240 240 241 242 242 242 241 240 239 238 236 235 234 234 234 235
267 262 250 238 223 208 195 187 186 191 195 198 198 197 195 193 189 185 181 177 173 170 168 168 169 169 168 167 166 165 164 164 164 164 165 165 166 168 170 174 178 182 186 189 192 195 198 201 204 207 210 212 214 216 218 220 222 224 225 227 228 230 231 232 234 234 235 236 237 238 239 240 240 240 240 240 240 239 238 236 235 234 233 232 233 234
274 253 231 213 203 197 192 189 189 191 193 194 193 191 188 184 180 177 173 170 168 167 167 167 167 167 166 165 163 163 162 161 161 160 161 162 163 166 170 174 178 181 185 187 190 193 196 200 203 206 208 210 212 214 216 218 221 222 224 226 227 229 230 232 233 234 234 235 237 237 238 239 239 239 239 238 238 237 236 235 234 233 231 231 232 233
291 242 209 197 191 188 187 187 187 188 188 187 185 183 179 176 172 170 168 166 165 166 167 167 166 165 164 162 161 160 159 157 157 157 158 160 164 168 173 176 178 180 182 185 187 190 194 197 201 204 206 207 209 211 214 216 218 220 222 224 226 227 229 230 231 232 233 235 236 236 237 237 237 237 237 237 236 235 234 233 232 232 231 231 232 233
60 103 151 163 166 170 173 176 178 178 178 177 175 173 171 168 166 165 164 164 165 166 167 167 166 164 163 161 159 157 155 154 155 157 160 164 168 172 175 177 178 179 181 184 187 189 192 194 197 200 202 204 206 208 211 213 215 218 220 222 223 225 227 228 229 230 231 233 233 234 235 235 235 235 235 234 234 233 233 232 231 230 230 230 231 232
78 87 100 115 125 134 141 149 155 160 163 164 164 164 163 162 162 162 163 164 166 167 167 166 165 163 162 159 157 155 155 156 159 163 168 172 174 175 175 176 177 179 181 183 186 187 189 190 192 194 196 199 202 205 207 210 212 214 217 218 220 222 223 224 226 227 228 229 230 231 231 232 232 232 232 232 232 232 231 231 230 230 230 230 230 231
83 84 87 91 96 102 110 119 128 137 145 151 155 157 159 161 162 164 165 165 166 166 165 164 162 161 160 158 158 158 160 164 169 174 178 179 177 174 173 174 175 177 179 181 182 183 184 186 188 190 191 194 196 200 203 205 208 210 212 214 215 217 218 220 221 222 223 224 225 226 227 227 227 227 228 229 230 230 230 230 229 229 229 230 231 232
86 84 84 85 86 89 94 103 112 121 131 140 148 154 160 164 167 168 168 167 165 164 163 161 160 159 159 160 161 164 167 172 177 180 180 177 173 170 170 170 172 173 174 175 177 178 180 183 185 186 188 190 192 194 197 200 202 204 206 208 209 211 212 214 216 217 218 219 220 221 221 220 220 220 222 225 227 228 229 229 228 228 228 229 230 231
88 86 85 86 89 94 100 108 116 124 133 142 151 160 166 169 170 170 168 166 164 161 160 159 159 160 161 164 166 169 172 174 174 172 169 166 165 165 166 167 167 168 169 171 174 177 180 182 184 185 186 187 188 190 192 194 196 198 199 201 202 204 206 209 211 213 214 215 215 216 215 215 214 215 217 219 221 223 225 226 226 226 226 227 228 229
88 88 89 93 98 107 117 127 135 142 150 156 161 165 167 167 165 163 162 160 159 158 157 158 159 161 165 168 170 171 169 165 162 161 161 161 162 164 165 166 167 168 170 173 176 179 181 182 183 184 185 186 186 186 187 189 191 192 193 194 197 199 202 204 207 210 212 213 213 213 212 211 211 211 211 213 215 218 219 221 223 224 225 225 226 227
97 98 101 106 113 123 132 140 147 152 156 159 161 162 162 161 159 157 155 155 155 155 157 159 162 165 168 168 167 164 160 156 156 159 161 164 166 168 169 171 172 173 174 176 178 181 182 182 182 182 183 184 184 184 185 186 187 187 189 191 194 196 198 201 204 207 209 211 213 213 212 210 209 209 210 211 213 214 215 217 219 221 223 224 225 226
Height
5404 5408 5412 5416 5419 5421 5423 5425 5427 5428 5430 5434 5438 5440 5443 5446 5451 5457 5463 5467 5470 5474 5478 5482 5486 5490 5494 5499 5503 5506 5509 5512 5516 5519 5522 5525 5528 5532 5535 5539 5542 5545 5548 5551 5554 5557 5560 5564 5567 5570 5574 5577 5580 5584 5587 5590 5593 5595 5598 5602 5605 5608 5611 5615 5618 5621 5623 5626 5629 5632 5636 5639 5642 5645 5648 5651 5654 5656 5659 5661 5664 5666 5669 5672 5673 5674
5388 5391 5395 5400 5404 5406 5408 5411 5414 5417 5419 5421 5424 5427 5429 5432 5436 5442 5448 5453 5457 5461 5465 5469 5474 5479 5484 5489 5492 5495 5499 5503 5507 5510 5513 5516 5520 5524 5527 5531 5534 5537 5540 5544 5547 5550 5553 5557 5561 5564 5567 5570 5574 5578 5581 5584 5586 5589 5591 5594 5598 5601 5604 5608 5611 5614 5617 5619 5623 5626 5629 5632 5636 5639 5642 5645 5648 5651 5654 5656 5658 5660 5662 5666 5668 5670
5373 5375 5379 5384 5388 5390 5393 5396 5401 5405 5407 5408 5410 5414 5416 5419 5423 5428 5434 5439 5444 5448 5452 5458 5463 5468 5473 5478 5481 5485 5489 5494 5498 5501 5504 5508 5511 5515 5519 5522 5525 5529 5533 5536 5539 5543 5547 5551 5554 5557 5560 5563 5567 5571 5575 5578 5580 5582 5585 5588 5591 5595 5598 5601 5604 5607 5610 5613 5616 5619 5623 5626 5629 5633 5635 5639 5642 5645 5648 5650 5653 5655 5658 5660 5663 5665
5360 5361 5364 5369 5372 5375 5379 5382 5386 5390 5394 5395 5398 5401 5404 5407 5410 5414 5419 5424 5429 5434 5439 5446 5451 5457 5462 5466 5470 5475 5480 5484 5488 5492 5495 5499 5503 5506 5510 5513 5517 5520 5524 5528 5532 5536 5540 5544 5548 5550 5553 5557 5560 5565 5569 5571 5574 5576 5579 5582 5585 5589 5592 5594 5597 5600 5604 5606 5609 5613 5616 5620 5623 5626 5629 5632 5635 5638 5642 5645 5648 5650 5652 5655 5658 5660
5349 5350 5352 5355 5358 5361 5365 5369 5372 5376 5379 5382 5385 5389 5393 5396 5398 5401 5404 5409 5414 5421 5427 5433 5439 5444 5449 5454 5459 5465 5470 5474 5478 5482 5486 5490 5494 5498 5501 5504 5508 5512 5516 5520 5525 5529 5534 5538 5541 5544 5547 5550 5554 5558 5562 5565 5568 5570 5573 5576 5579 5582 5585 5588 5591 5594 5597 5600 5603 5607 5610 5613 5616 5619 5622 5624 5628 5632 5635 5639 5642 5644 5647 5649 5651 5654
5339 5340 5342 5343 5346 5349 5352 5355 5359 5363 5366 5369 5372 5376 5380 5383 5385 5388 5392 5397 5403 5408 5414 5419 5425 5431 5437 5443 5449 5454 5460 5464 5468 5472 5476 5480 5484 5489 5492 5496 5499 5503 5508 5513 5518 5523 5527 5530 5534 5537 5540 5544 5548 5552 5555 5559 5562 5564 5567 5570 5573 5576 5579 5582 5584 5587 5590 5594 5597 5600 5604 5607 5610 5612 5615 5618 5621 5625 5629 5633 5636 5639 5642 5644 5646 5648
5329 5331 5333 5334 5335 5337 5340 5344 5348 5352 5354 5356 5359 5363 5366 5370 5374 5377 5382 5387 5391 5394 5398 5404 5411 5418 5425 5432 5438 5444 5449 5453 5457 5462 5466 5471 5475 5479 5484 5487 5491 5495 5500 5505 5510 5515 5519 5523 5527 5531 5534 5538 5542 5545 5549 5553 5555 5559 5561 5564 5566 5569 5572 5575 5578 5581 5584 5587 5591 5594 5598 5600 5603 5605 5609 5612 5616 5619 5624 5628 5631 5634 5637 5639 5641 5643
5321 5323 5324 5325 5325 5327 5330 5334 5338 5341 5343 5345 5347 5350 5354 5358 5363 5367 5371 5374 5378 5381 5384 5390 5398 5406 5414 5421 5428 5434 5439 5443 5447 5451 5457 5462 5466 5470 5474 5479 5483 5487 5492 5497 5502 5507 5512 5516 5520 5524 5529 5532 5536 5539 5543 5546 5549 5552 5555 5558 5560 5563 5566 5569 5572 5574 5578 5581 5584 5588 5591 5594 5596 5599 5603 5607 5611 5615 5619 5622 5625 5628 5631 5633 5635 5638
5314 5314 5315 5317 5318 5319 5321 5324 5328 5331 5333 5334 5336 5339 5343 5347 5351 5355 5359 5362 5366 5370 5374 5379 5386 5394 5402 5409 5416 5422 5428 5432 5436 5441 5447 5452 5457 5461 5466 5470 5474 5479 5484 5489 5494 5499 5504 5509 5514 5518 5522 5526 5529 5533 5536 5540 5543 5546 5549 5551 5554 5557 5559 5562 5565 5568 5572 5575 5578 5582 5585 5588 5591 5594 5598 5602 5606 5609 5613 5616 5619 5622 5624 5627 5629 5632
5307 5307 5308 5309 5310 5312 5313 5315 5318 5322 5324 5325 5327 5329 5332 5335 5339 5344 5347 5352 5357 5361 5364 5368 5373 5380 5388 5396 5404 5411 5417 5421 5426 5431 5436 5442 5448 5453 5457 5461 5466 5471 5476 5482 5487 5492 5497 5502 5507 5512 5516 5519 5523 5526 5530 5534 5537 5540 5543 5545 5548 5551 5554 5556 5559 5562 5565 5569 5572 5576 5579 5582 5585 5589 5593 5597 5600 5603 5606 5609 5613 5616 5619 5621 5624 5627
5300 5301 5301 5301 5303 5304 5306 5307 5309 5312 5315 5317 5318 5320 5324 5327 5331 5334 5337 5342 5346 5350 5354 5357 5362 5368 5375 5383 5392 5399 5405 5410 5415 5420 5427 5433 5438 5443 5448 5453 5458 5463 5468 5474 5479 5484 5490 5495 5500 5505 5509 5513 5516 5520 5524 5527 5531 5534 5536 5539 5542 5545 5548 5550 5553 5556 5559 5563 5567 5570 5573 5576 5580 5584 5588 5591 5594 5597 5600 5603 5607 5610 5613 5616 5619 5622
5294 5294 5295 5295 5295 5297 5299 5300 5302 5304 5307 5310 5312 5314 5317 5320 5323 5324 5327 5330 5334 5339 5343 5347 5352 5357 5363 5371 5379 5387 5394 5399 5404 5411 5417 5423 5429 5434 5439 5445 5450 5455 5461 5466 5472 5477 5482 5488 5493 5498 5502 5506 5510 5514 5518 5521 5524 5528 5531 5534 5536 5539 5542 5545 5548 5551 5554 5557 5561 5564 5568 5571 5574 5578 5582 5585 5588 5591 5594 5597 5601 5604 5608 5610 5613 5616
5288 5289 5289 5289 5289 5291 5292 5294 5296 5298 5300 5303 5305 5307 5309 5311 5313 5314 5316 5319 5324 5329 5333 5337 5341 5346 5352 5359 5367 5374 5382 5389 5395 5401 5407 5413 5419 5425 5431 5437 5442 5448 5453 5458 5464 5470 5475 5480 5485 5490 5495 5499 5504 5508 5512 5515 5519 5522 5525 5528 5531 5534 5537 5540 5543 5546 5549 5552 5555 5559 5562 5565 5568 5572 5575 5579 5582 5585 5588 5591 5595 5599 5602 5605 5608 5611
5283 5283 5283 5283 5283 5285 5286 5288 5290 5291 5294 5296 5298 5299 5300 5302 5304 5307 5309 5312 5315 5319 5324 5327 5331 5336 5342 5349 5356 5363 5370 5378 5384 5390 5397 5404 5411 5417 5423 5428 5434 5439 5444 5450 5457 5463 5468 5473 5478 5483 5488 5493 5498 5502 5506 5510 5513 5517 5520 5523 5526 5529 5533 5536 5539 5541 5544 5547 5550 5553 5556 5559 5562 5566 5569 5573 5576 5579 5582 5585 5589 5592 5596 5599 5603 5606
5277 5278 5278 5278 5278 5279 5281 5283 5284 5285 5287 5289 5291 5293 5294 5297 5299 5302 5303 5305 5308 5310 5314 5318 5322 5328 5334 5340 5347 5353 5359 5366 5373 5380 5388 5395 5403 5409 5414 5420 5425 5431 5437 5444 5450 5456 5460 5466 5471 5477 5482 5487 5492 5496 5500 5504 5508 5511 5515 5518 5522 5525 5528 5531 5534 5536 5539 5541 5544 5547 5550 5553 5556 5559 5563 5567 5570 5573 5576 5579 5583 5586 5590 5594 5597 5600
5273 5273 5273 5273 5273 5275 5276 5278 5279 5280 5282 5284 5286 5288 5290 5292 5293 5295 5296 5297 5299 5302 5305 5310 5314 5319 5325 5332 5337 5342 5348 5355 5362 5370 5379 5387 5394 5400 5406 5412 5417 5423 5430 5437 5443 5448 5454 5460 5466 5471 5476 5481 5486 5490 5494 5499 5503 5506 5510 5514 5517 5520 5523 5526 5529 5531 5534 5536 5539 5541 5544 5547 5550 5554 5557 5561 5564 5567 5570 5573 5577 5580 5584 5587 5591 5595
5268 5268 5268 5268 5269 5270 5272 5273 5274 5275 5277 5279 5281 5283 5284 5285 5286 5287 5289 5291 5293 5295 5300 5304 5308 5312 5317 5323 5329 5334 5340 5346 5353 5361 5369 5377 5385 5392 5398 5404 5409 5415 5422 5429 5435 5441 5447 5454 5461 5465 5470 5475 5480 5484 5489 5493 5498 5501 5505 5509 5512 5515 5518 5521 5524 5526 5529 5531 5534 5536 5539 5542 5545 5548 5551 5555 5559 5562 5564 5568 5571 5574 5577 5581 5585 5589
5264 5264 5264 5264 5264 5266 5268 5269 5270 5271 5273 5274 5276 5277 5278 5279 5281 5283 5284 5286 5289 5292 5295 5298 5301 5305 5310 5316 5323 5329 5333 5338 5344 5351 5359 5369 5377 5384 5389 5395 5401 5407 5414 5422 5429 5435 5442 5449 5454 5459 5464 5469 5474 5479 5483 5488 5492 5496 5500 5504 5507 5510 5513 5516 5519 5521 5524 5526 5529 5531 5534 5537 5539 5543 5546 5549 5553 5556 5559 5562 5564 5567 5571 5575 5579 5584
5260 5260 5260 5260 5261 5262 5264 5265 5266 5268 5269 5270 5271 5272 5274 5275 5277 5279 5280 5283 5284 5287 5289 5291 5295 5299 5304 5311 5317 5321 5325 5330 5336 5342 5351 5360 5369 5374 5379 5386 5393 5399 5407 5415 5423 5429 5436 5443 5448 5453 5458 5463 5468 5473 5478 5482 5486 5491 5495 5499 5502 5505 5508 5511 5514 5516 5519 5521 5524 5526 5529 5531 5534 5537 5540 5544 5547 5550 5554 5556 5559 5561 5565 5569 5573 5578
5257 5257 5257 5258 5258 5259 5260 5261 5263 5264 5266 5266 5267 5268 5270 5271 5273 5274 5276 5278 5279 5281 5284 5286 5290 5295 5300 5306 5311 5314 5319 5324 5329 5335 5343 5352 5359 5365 5371 5379 5385 5392 5400 5409 5417 5423 5430 5437 5443 5447 5453 5458 5463 5467 5472 5476 5481 5485 5489 5493 5497 5500 5503 5506 5508 5511 5514 5517 5519 5522 5524 5527 5529 5532 5535 5539 5542 5545 5548 5551 5553 5556 5559 5564 5568 5573
5254 5254 5255 5256 5256 5256 5257 5258 5260 5262 5262 5263 5264 5266 5267 5268 5269 5271 5272 5274 5275 5278 5280 5284 5288 5291 5295 5300 5304 5308 5313 5318 5324 5330 5336 5343 5349 5356 5364 5372 5379 5387 5395 5404 5411 5417 5424 5431 5437 5442 5447 5452 5457 5462 5466 5471 5475 5480 5484 5488 5492 5495 5498 5501 5504 5506 5509 5512 5514 5517 5520 5522 5525 5528 5531 5534 5537 5540 5543 5545 5548 5551 5554 5558 5563 5568
5253 5252 5253 5254 5254 5253 5254 5256 5258 5259 5260 5261 5262 5263 5264 5265 5267 5268 5269 5271 5273 5274 5277 5280 5283 5285 5289 5293 5298 5301 5305 5311 5318 5323 5327 5334 5342 5350 5358 5366 5374 5381 5389 5398 5405 5412 5419 5426 5431 5436 5442 5447 5452 5456 5461 5465 5470 5474 5479 5483 5486 5490 5493 5496 5499 5502 5504 5507 5510 5513 5516 5518 5521 5524 5526 5529 5532 5535 5538 5541 5543 5546 5549 5554 5559 5563
5251 5251 5251 5252 5251 5251 5252 5254 5255 5256 5257 5258 5259 5261 5263 5265 5266 5267 5267 5268 5269 5271 5272 5274 5277 5279 5283 5288 5292 5296 5300 5306 5311 5315 5320 5327 5336 5344 5351 5359 5367 5376 5384 5392 5399 5407 5414 5420 5426 5431 5437 5442 5447 5451 5456 5460 5465 5469 5474 5478 5481 5485 5488 5491 5494 5497 5500 5503 5506 5509 5512 5514 5517 5519 5522 5525 5528 5531 5534 5536 5538 5541 5545 5549 5553 5557
5251 5250 5250 5250 5250 5250 5251 5252 5253 5254 5254 5255 5257 5259 5261 5263 5264 5264 5264 5264 5265 5265 5267 5269 5272 5275 5279 5284 5289 5293 5297 5302 5306 5310 5315 5323 5331 5338 5344 5353 5362 5371 5379 5386 5393 5401 5409 5415 5420 5426 5432 5437 5442 5446 5451 5456 5460 5464 5469 5473 5476 5480 5483 5487 5490 5493 5496 5499 5502 5505 5508 5510 5513 5515 5518 5520 5523 5526 5529 5531 5534 5536 5540 5544 5548 5552
5250 5249 5249 5248 5248 5248 5249 5249 5250 5251 5252 5253 5253 5255 5256 5258 5259 5259 5259 5261 5262 5263 5265 5267 5269 5272 5274 5278 5282 5287 5292 5297 5301 5305 5310 5318 5324 5331 5339 5349 5358 5366 5373 5379 5388 5396 5404 5410 5416 5421 5427 5433 5437 5442 5446 5451 5455 5460 5464 5468 5471 5475 5479 5483 5486 5489 5492 5495 5498 5501 5504 5506 5509 5511 5514 5516 5519 5521 5524 5526 5529 5532 5535 5539 5543 5546
5249 5248 5247 5247 5247 5246 5247 5247 5248 5249 5249 5250 5251 5252 5252 5253 5254 5255 5256 5258 5259 5261 5262 5264 5266 5268 5270 5274 5277 5281 5285 5290 5294 5300 5306 5313 5320 5327 5336 5345 5353 5360 5367 5374 5384 5392 5399 5405 5411 5417 5423 5428 5432 5437 5442 5446 5451 5455 5459 5463 5467 5471 5474 5478 5482 5485 5488 5491 5494 5497 5499 5502 5505 5507 5509 5512 5514 5517 5519 5522 5524 5527 5530 5534 5538 5541
5248 5247 5246 5245 5245 5245 5245 5245 5246 5246 5247 5248 5249 5249 5250 5250 5251 5252 5253 5255 5257 5258 5260 5261 5263 5265 5269 5273 5277 5280 5284 5288 5293 5298 5303 5309 5317 5325 5334 5341 5348 5355 5363 5371 5380 5388 5394 5400 5406 5412 5418 5423 5427 5432 5437 5442 5446 5450 5454 5459 5462 5466 5470 5474 5478 5481 5484 5487 5490 5493 5495 5498 5500 5503 5505 5507 5509 5512 5514 5517 5520 5523 5526 5529 5533 5535
5247 5246 5245 5244 5244 5244 5243 5243 5244 5244 5245 5245 5246 5247 5248 5248 5248 5249 5250 5253 5255 5257 5258 5259 5262 5265 5269 5273 5276 5279 5282 5287 5292 5297 5301 5307 5315 5323 5330 5336 5344 5352 5360 5368 5375 5382 5389 5395 5402 5408 5414 5418 5423 5428 5433 5438 5442 5446 5450 5454 5458 5462 5466 5470 5474 5477 5480 5483 5486 5489 5491 5494 5496 5499 5501 5503 5505 5508 5510 5513 5516 5519 5521 5524 5527 5530
5245 5244 5244 5243 5243 5242 5242 5242 5242 5242 5243 5244 5244 5245 5246 5246 5246 5247 5249 5252 5254 5256 5256 5258 5261 5264 5267 5270 5273 5277 5281 5286 5291 5294 5299 5306 5314 5322 5327 5334 5342 5350 5358 5365 5371 5378 5385 5392 5398 5404 5409 5414 5419 5424 5429 5433 5437 5442 5446 5449 5454 5458 5462 5466 5469 5473 5476 5479 5482 5485 5487 5490 5492 5494 5496 5499 5501 5503 5506 5509 5512 5514 5517 5520 5523 5526
5244 5244 5243 5242 5241 5241 5240 5240 5240 5241 5241 5242 5243 5243 5244 5244 5245 5247 5249 5252 5253 5254 5255 5257 5260 5264 5267 5270 5274 5277 5281 5286 5290 5294 5299 5306 5314 5320 5325 5333 5341 5348 5354 5361 5368 5375 5382 5388 5393 5399 5405 5410 5415 5420 5425 5429 5433 5437 5441 5445 5449 5454 5458 5462 5465 5469 5472 5475 5478 5481 5484 5486 5488 5490 5492 5494 5497 5499 5502 5505 5508 5511 5513 5516 5519 5523
5243 5242 5242 5241 5241 5240 5239 5239 5240 5240 5240 5241 5242 5242 5243 5244 5245 5247 5249 5251 5252 5253 5254 5257 5260 5264 5267 5270 5274 5278 5281 5285 5289 5294 5299 5307 5313 5319 5324 5332 5339 5345 5351 5358 5365 5372 5378 5383 5389 5395 5401 5407 5412 5416 5421 5425 5429 5433 5437 5441 5446 5450 5454 5458 5461 5465 5468 5471 5474 5477 5480 5482 5484 5486 5489 5491 5493 5496 5499 5502 5504 5507 5510 5513 5516 5519
5242 5241 5241 5240 5240 5239 5239 5239 5239 5239 5240 5241 5241 5242 5243 5244 5245 5246 5248 5249 5251 5253 5255 5258 5260 5263 5266 5269 5273 5277 5281 5285 5289 5294 5300 5307 5312 5318 5324 5331 5337 5342 5348 5355 5362 5368 5374 5379 5385 5392 5398 5403 5408 5412 5417 5421 5425 5429 5434 5438 5443 5446 5450 5454 5457 5461 5464 5468 5471 5474 5476 5479 5481 5483 5485 5488 5490 5493 5495 5498 5501 5504 5507 5510 5513 5515
5241 5240 5240 5240 5239 5239 5239 5239 5239 5239 5240 5241 5242 5242 5243 5244 5245 5246 5248 5249 5251 5253 5255 5258 5260 5264 5266 5270 5273 5277 5282 5286 5291 5295 5301 5307 5312 5318 5324 5331 5336 5341 5346 5353 5359 5364 5370 5377 5383 5389 5394 5399 5404 5408 5413 5417 5422 5426 5430 5435 5439 5443 5446 5450 5454 5458 5461 5464 5467 5470 5473 5475 5478 5480 5482 5484 5487 5489 5492 5495 5498 5501 5504 5506 5509 5512
5240 5240 5239 5239 5239 5239 5239 5239 5239 5240 5240 5241 5242 5243 5244 5244 5245 5246 5248 5249 5251 5254 5256 5258 5261 5264 5267 5270 5274 5278 5283 5287 5291 5296 5301 5307 5313 5318 5324 5330 5335 5340 5346 5352 5357 5363 5369 5375 5380 5386 5391 5396 5400 5405 5410 5414 5419 5423 5427 5431 5435 5439 5443 5447 5451 5454 5457 5460 5464 5466 5469 5472 5474 5476 5479 5481 5484 5486 5489 5492 5494 5497 5500 5503 5505 5508
5240 5239 5239 5239 5239 5239 5239 5239 5239 5240 5241 5242 5242 5243 5244 5245 5246 5247 5249 5250 5252 5254 5257 5259 5262 5264 5268 5271 5275 5279 5283 5287 5292 5296 5302 5307 5312 5318 5324 5329 5334 5339 5345 5350 5355 5361 5367 5373 5378 5383 5389 5393 5397 5402 5407 5411 5415 5419 5424 5428 5432 5436 5439 5444 5447 5450 5453 5457 5460 5463 5465 5468 5470 5473 5475 5478 5480 5483 5485 5488 5491 5494 5496 5499 5502 5504
5240 5239 5239 5239 5239 5239 5239 5239 5240 5240 5241 5242 5243 5244 5244 5245 5247 5248 5250 5252 5254 5255 5258 5260 5263 5265 5269 5272 5275 5279 5283 5288 5292 5297 5302 5307 5313 5319 5324 5329 5334 5339 5344 5349 5354 5360 5365 5371 5376 5380 5385 5390 5395 5399 5404 5408 5412 5417 5421 5425 5429 5433 5436 5440 5443 5447 5450 5453 5456 5459 5462 5464 5467 5469 5472 5474 5477 5479 5482 5484 5487 5489 5492 5495 5498 5500
5240 5240 5240 5239 5239 5239 5240 5240 5240 5241 5241 5242 5243 5244 5245 5247 5249 5250 5252 5254 5255 5258 5259 5262 5264 5267 5270 5273 5277 5280 5284 5289 5294 5298 5302 5307 5313 5319 5324 5328 5333 5338 5344 5349 5354 5359 5364 5369 5374 5379 5383 5388 5392 5396 5400 5405 5409 5414 5418 5422 5425 5429 5433 5436 5439 5443 5446 5450 5453 5455 5458 5461 5463 5466 5468 5470 5473 5476 5478 5480 5483 5485 5488 5491 5494 5497
5241 5241 5241 5241 5240 5240 5240 5241 5241 5242 5243 5244 5245 5246 5247 5249 5250 5252 5254 5255 5257 5259 5261 5263 5265 5268 5271 5275 5278 5282 5286 5290 5295 5299 5303 5308 5314 5319 5324 5328 5333 5339 5344 5348 5353 5358 5364 5368 5373 5377 5381 5385 5389 5393 5398 5402 5407 5411 5414 5418 5422 5426 5430 5433 5436 5439 5443 5446 5449 5452 5455 5457 5460 5462 5464 5467 5470 5472 5474 5477 5479 5481 5484 5487 5490 5493
5242 5242 5242 5242 5242 5242 5242 5242 5242 5243 5244 5246 5247 5248 5250 5251 5253 5254 5255 5257 5258 5259 5261 5264 5266 5269 5273 5276 5279 5283 5287 5292 5295 5299 5304 5309 5314 5319 5324 5329 5334 5339 5344 5349 5354 5358 5362 5366 5370 5374 5379 5383 5387 5391 5396 5400 5404 5407 5411 5415 5420 5424 5427 5430 5433 5436 5439 5443 5446 5449 5451 5454 5456 5459 5461 5464 5466 5469 5471 5474 5476 5478 5481 5484 5486 5489
5244 5244 5244 5243 5243 5243 5243 5244 5244 5246 5247 5248 5249 5251 5252 5253 5254 5255 5256 5257 5259 5260 5263 5265 5268 5271 5274 5277 5281 5285 5289 5293 5296 5301 5305 5310 5315 5320 5324 5329 5334 5339 5344 5349 5353 5357 5361 5365 5369 5373 5377 5381 5385 5389 5393 5397 5401 5404 5408 5413 5417 5421 5423 5426 5430 5433 5436 5439 5443 5445 5448 5450 5453 5455 5458 5460 5463 5465 5468 5469 5472 5474 5477 5480 5483 5486
5245 5245 5245 5244 5244 5244 5245 5246 5247 5248 5249 5250 5251 5252 5253 5254 5255 5256 5257 5258 5260 5262 5264 5267 5270 5273 5276 5279 5283 5286 5290 5294 5298 5302 5307 5311 5316 5320 5325 5330 5335 5340 5344 5349 5353 5356 5360 5364 5368 5372 5376 5379 5383 5387 5391 5395 5398 5402 5406 5410 5414 5416 5419 5423 5427 5430 5433 5436 5439 5442 5444 5447 5449 5452 5454 5456 5459 5462 5464 5466 5469 5471 5473 5477 5480 5482
5246 5246 5246 5246 5246 5246 5247 5248 5249 5249 5250 5251 5252 5252 5253 5254 5255 5256 5258 5259 5261 5264 5266 5269 5272 5275 5278 5281 5284 5288 5292 5296 5300 5304 5309 5313 5318 5322 5327 5332 5337 5341 5345 5349 5352 5356 5360 5364 5367 5371 5374 5378 5382 5386 5389 5393 5396 5400 5404 5408 5410 5413 5417 5422 5425 5427 5430 5433 5436 5438 5441 5444 5446 5449 5451 5453 5455 5458 5461 5464 5466 5468 5470 5472 5475 5477
5248 5247 5247 5247 5247 5247 5248 5249 5249 5250 5250 5251 5252 5252 5254 5255 5256 5258 5259 5261 5263 5266 5269 5271 5274 5277 5279 5283 5286 5290 5294 5298 5302 5306 5311 5315 5320 5325 5329 5334 5338 5341 5345 5348 5351 5355 5359 5362 5366 5370 5373 5377 5380 5384 5388 5391 5394 5398 5402 5405 5408 5411 5416 5419 5421 5424 5427 5430 5433 5435 5438 5440 5443 5445 5447 5449 5452 5455 5458 5461 5464 5466 5467 5469 5471 5474
5249 5249 5249 5249 5249 5249 5249 5249 5250 5251 5251 5252 5253 5254 5256 5257 5259 5260 5262 5264 5266 5269 5271 5274 5276 5279 5282 5285 5288 5292 5296 5300 5304 5309 5313 5318 5322 5327 5331 5334 5338 5342 5345 5348 5351 5355 5359 5362 5365 5369 5372 5376 5379 5383 5386 5389 5393 5396 5399 5403 5406 5409 5413 5415 5417 5421 5425 5428 5430 5432 5435 5437 5439 5442 5444 5446 5449 5451 5454 5457 5459 5462 5464 5466 5469 5471
5251 5251 5251 5251 5251 5251 5251 5252 5253 5253 5254 5255 5256 5257 5259 5260 5262 5263 5265 5267 5269 5272 5274 5276 5279 5282 5284 5288 5291 5294 5298 5302 5307 5311 5315 5319 5324 5328 5332 5335 5339 5342 5345 5348 5351 5354 5358 5361 5364 5368 5371 5375 5379 5382 5384 5388 5391 5394 5397 5400 5404 5407 5409 5412 5415 5419 5422 5424 5427 5429 5432 5434 5436 5439 5441 5444 5446 5448 5450 5453 5455 5458 5460 5462 5464 5466
5254 5254 5254 5254 5254 5254 5254 5255 5255 5256 5257 5258 5259 5260 5262 5263 5264 5266 5268 5270 5272 5274 5277 5279 5281 5284 5286 5289 5293 5296 5299 5304 5308 5313 5317 5320 5324 5328 5332 5335 5339 5342 5345 5348 5351 5354 5357 5360 5363 5367 5370 5374 5377 5380 5383 5386 5389 5392 5395 5398 5401 5404 5407 5410 5414 5416 5419 5421 5424 5426 5429 5431 5433 5436 5438 5440 5442 5444 5447 5449 5451 5454 5455 5458 5459 5461
5257 5257 5256 5256 5257 5257 5257 5258 5259 5259 5260 5261 5262 5264 5265 5266 5268 5269 5271 5273 5275 5277 5279 5281 5283 5286 5288 5291 5294 5297 5301 5305 5309 5314 5317 5320 5324 5328 5331 5335 5338 5341 5344 5347 5350 5354 5356 5359 5363 5366 5369 5372 5375 5378 5381 5384 5387 5390 5393 5396 5399 5402 5404 5407 5410 5413 5415 5418 5421 5424 5426 5428 5431 5433 5435 5437 5439 5441 5444 5446 5448 5450 5452 5454 5456 5458
5259 5259 5259 5260 5260 5260 5261 5262 5263 5264 5264 5265 5267 5268 5269 5270 5271 5272 5274 5275 5277 5279 5281 5283 5285 5288 5290 5293 5296 5300 5304 5308 5312 5315 5318 5321 5324 5328 5331 5334 5337 5340 5343 5346 5349 5353 5356 5359 5362 5365 5368 5371 5373 5376 5379 5382 5385 5388 5391 5394 5396 5399 5402 5405 5408 5411 5413 5416 5419 5421 5424 5426 5429 5431 5433 5434 5436 5439 5441 5443 5445 5447 5449 5451 5453 5455
5262 5262 5263 5263 5263 5264 5264 5265 5266 5267 5268 5269 5270 5271 5272 5273 5274 5275 5276 5277 5279 5281 5283 5285 5288 5291 5294 5297 5300 5304 5307 5311 5313 5316 5318 5322 5325 5329 5332 5334 5337 5340 5343 5346 5349 5352 5355 5358 5360 5363 5366 5369 5372 5375 5378 5380 5383 5386 5389 5392 5395 5397 5400 5403 5405 5409 5411 5414 5416 5418 5421 5423 5426 5428 5430 5433 5435 5437 5439 5441 5443 5444 5446 5448 5450 5451
5265 5265 5265 5266 5266 5267 5267 5268 5269 5270 5271 5272 5273 5274 5274 5275 5277 5278 5279 5281 5283 5285 5287 5289 5292 5295 5298 5301 5304 5307 5309 5312 5314 5316 5319 5323 5326 5329 5332 5334 5337 5340 5343 5346 5349 5351 5354 5357 5359 5362 5365 5368 5371 5374 5376 5379 5382 5385 5388 5390 5393 5396 5398 5401 5404 5406 5409 5411 5414 5416 5418 5421 5423 5426 5429 5431 5433 5435 5437 5439 5441 5442 5444 5445 5446 5448
5268 5268 5268 5269 5269 5269 5270 5271 5271 5272 5273 5273 5274 5275 5277 5278 5279 5281 5283 5285 5287 5289 5292 5294 5296 5298 5301 5303 5305 5307 5310 5313 5315 5318 5320 5323 5326 5329 5331 5334 5336 5339 5342 5345 5348 5350 5352 5355 5358 5361 5364 5367 5369 5372 5375 5378 5380 5383 5386 5389 5391 5394 5397 5399 5402 5404 5407 5409 5411 5414 5416 5418 5421 5424 5426 5428 5430 5432 5434 5436 5438 5439 5441 5442 5444 5445